owner,sensor,date,latitude,longitude,air_pressure(mBar),qcFlag 
WAVCIS,ioos:station:WAVCIS:CSI09:1,2009-03-01T00:00:00Z,29.1015,-89.9782,1014.23,11111222 
WAVCIS,ioos:station:WAVCIS:CSI09:1,2009-03-01T01:00:00Z,29.1015,-89.9782,1015.43,11111222 
WAVCIS,ioos:station:WAVCIS:CSI09:1,2009-03-01T02:00:00Z,29.1015,-89.9782,1016.14,11111222 
WAVCIS,ioos:station:WAVCIS:CSI09:1,2009-03-01T03:00:00Z,29.1015,-89.9782,1017.67,11111222 
WAVCIS,ioos:station:WAVCIS:CSI09:1,2009-03-01T04:00:00Z,29.1015,-89.9782,1018.37,11111222 
WAVCIS,ioos:station:WAVCIS:CSI09:1,2009-03-01T05:00:00Z,29.1015,-89.9782,1018.48,11111222 
WAVCIS,ioos:station:WAVCIS:CSI09:1,2009-03-01T06:00:00Z,29.1015,-89.9782,1018.67,11111222 
WAVCIS,ioos:station:WAVCIS:CSI09:1,2009-03-01T07:00:00Z,29.1015,-89.9782,1019.17,11111222 
WAVCIS,ioos:station:WAVCIS:CSI09:1,2009-03-01T08:00:00Z,29.1015,-89.9782,1019.63,11111222 
WAVCIS,ioos:station:WAVCIS:CSI09:1,2009-03-01T09:00:00Z,29.1015,-89.9782,1019.75,11111222 
WAVCIS,ioos:station:WAVCIS:CSI09:1,2009-03-01T10:00:00Z,29.1015,-89.9782,1019.66,11111222 
WAVCIS,ioos:station:WAVCIS:CSI09:1,2009-03-01T11:00:00Z,29.1015,-89.9782,1020.55,11111222 
WAVCIS,ioos:station:WAVCIS:CSI09:1,2009-03-01T12:00:00Z,29.1015,-89.9782,1021.63,11111222 
WAVCIS,ioos:station:WAVCIS:CSI09:1,2009-03-01T13:00:00Z,29.1015,-89.9782,1022.13,11111222 
WAVCIS,ioos:station:WAVCIS:CSI09:1,2009-03-01T14:00:00Z,29.1015,-89.9782,1022.69,11111222 
WAVCIS,ioos:station:WAVCIS:CSI09:1,2009-03-01T15:00:00Z,29.1015,-89.9782,1023.37,11111222 
WAVCIS,ioos:station:WAVCIS:CSI09:1,2009-03-01T16:00:00Z,29.1015,-89.9782,1024.02,11111222 
WAVCIS,ioos:station:WAVCIS:CSI09:1,2009-03-01T17:00:00Z,29.1015,-89.9782,1023.86,11111222 
WAVCIS,ioos:station:WAVCIS:CSI09:1,2009-03-01T18:00:00Z,29.1015,-89.9782,1023.27,11111222 
WAVCIS,ioos:station:WAVCIS:CSI09:1,2009-03-01T19:00:00Z,29.1015,-89.9782,1022.56,11111222 
WAVCIS,ioos:station:WAVCIS:CSI09:1,2009-03-01T20:00:00Z,29.1015,-89.9782,1021.81,11111222 
WAVCIS,ioos:station:WAVCIS:CSI09:1,2009-03-01T21:00:00Z,29.1015,-89.9782,1021.64,11111222 
WAVCIS,ioos:station:WAVCIS:CSI09:1,2009-03-01T22:00:00Z,29.1015,-89.9782,1021.13,11111222 
WAVCIS,ioos:station:WAVCIS:CSI09:1,2009-03-01T23:00:00Z,29.1015,-89.9782,1021.47,11111222 
WAVCIS,ioos:station:WAVCIS:CSI09:1,2009-03-02T00:00:00Z,29.1015,-89.9782,1022.07,11111222 
WAVCIS,ioos:station:WAVCIS:CSI09:1,2009-03-02T01:00:00Z,29.1015,-89.9782,1022.68,11111222 
WAVCIS,ioos:station:WAVCIS:CSI09:1,2009-03-02T02:00:00Z,29.1015,-89.9782,1023.06,11111222 
WAVCIS,ioos:station:WAVCIS:CSI09:1,2009-03-02T03:00:00Z,29.1015,-89.9782,1023.66,11111222 
WAVCIS,ioos:station:WAVCIS:CSI09:1,2009-03-02T04:00:00Z,29.1015,-89.9782,1024.18,11111222 
WAVCIS,ioos:station:WAVCIS:CSI09:1,2009-03-02T05:00:00Z,29.1015,-89.9782,1024.21,11111222 
WAVCIS,ioos:station:WAVCIS:CSI09:1,2009-03-02T06:00:00Z,29.1015,-89.9782,1023.81,11111222 
WAVCIS,ioos:station:WAVCIS:CSI09:1,2009-03-02T07:00:00Z,29.1015,-89.9782,1024.31,11111222 
WAVCIS,ioos:station:WAVCIS:CSI09:1,2009-03-02T08:00:00Z,29.1015,-89.9782,1024.21,11111222 
WAVCIS,ioos:station:WAVCIS:CSI09:1,2009-03-02T09:00:00Z,29.1015,-89.9782,1024.21,11111222 
WAVCIS,ioos:station:WAVCIS:CSI09:1,2009-03-02T10:00:00Z,29.1015,-89.9782,1024.15,11111222 
WAVCIS,ioos:station:WAVCIS:CSI09:1,2009-03-02T11:00:00Z,29.1015,-89.9782,1023.82,11111222 
WAVCIS,ioos:station:WAVCIS:CSI09:1,2009-03-02T12:00:00Z,29.1015,-89.9782,1024.38,11111222 
WAVCIS,ioos:station:WAVCIS:CSI09:1,2009-03-02T13:00:00Z,29.1015,-89.9782,1024.66,11111222 
WAVCIS,ioos:station:WAVCIS:CSI09:1,2009-03-02T14:00:00Z,29.1015,-89.9782,1025.64,11111222 
WAVCIS,ioos:station:WAVCIS:CSI09:1,2009-03-02T15:00:00Z,29.1015,-89.9782,1025.78,11111222 
WAVCIS,ioos:station:WAVCIS:CSI09:1,2009-03-02T16:00:00Z,29.1015,-89.9782,1025.73,11111222 
WAVCIS,ioos:station:WAVCIS:CSI09:1,2009-03-02T17:00:00Z,29.1015,-89.9782,1025.45,11111222 
WAVCIS,ioos:station:WAVCIS:CSI09:1,2009-03-02T18:00:00Z,29.1015,-89.9782,1024.91,11111222 
WAVCIS,ioos:station:WAVCIS:CSI09:1,2009-03-02T19:00:00Z,29.1015,-89.9782,1024.05,11111222 
WAVCIS,ioos:station:WAVCIS:CSI09:1,2009-03-02T20:00:00Z,29.1015,-89.9782,1023.27,11111222 
WAVCIS,ioos:station:WAVCIS:CSI09:1,2009-03-02T21:00:00Z,29.1015,-89.9782,1022.94,11111222 
WAVCIS,ioos:station:WAVCIS:CSI09:1,2009-03-02T22:00:00Z,29.1015,-89.9782,1022.56,11111222 
WAVCIS,ioos:station:WAVCIS:CSI09:1,2009-03-02T23:00:00Z,29.1015,-89.9782,1022.79,11111222 
WAVCIS,ioos:station:WAVCIS:CSI09:1,2009-03-03T00:00:00Z,29.1015,-89.9782,1022.9,11111222 
WAVCIS,ioos:station:WAVCIS:CSI09:1,2009-03-03T01:00:00Z,29.1015,-89.9782,1023.52,11111222 
WAVCIS,ioos:station:WAVCIS:CSI09:1,2009-03-03T02:00:00Z,29.1015,-89.9782,1024.16,11111222 
WAVCIS,ioos:station:WAVCIS:CSI09:1,2009-03-03T03:00:00Z,29.1015,-89.9782,1024.39,11111222 
WAVCIS,ioos:station:WAVCIS:CSI09:1,2009-03-03T04:00:00Z,29.1015,-89.9782,1024.36,11111222 
WAVCIS,ioos:station:WAVCIS:CSI09:1,2009-03-03T05:00:00Z,29.1015,-89.9782,1023.94,11111222 
WAVCIS,ioos:station:WAVCIS:CSI09:1,2009-03-03T06:00:00Z,29.1015,-89.9782,1023.73,11111222 
WAVCIS,ioos:station:WAVCIS:CSI09:1,2009-03-03T07:00:00Z,29.1015,-89.9782,1023.93,11111222 
WAVCIS,ioos:station:WAVCIS:CSI09:1,2009-03-03T08:00:00Z,29.1015,-89.9782,1023.62,11111222 
WAVCIS,ioos:station:WAVCIS:CSI09:1,2009-03-03T09:00:00Z,29.1015,-89.9782,1024.14,11111222 
WAVCIS,ioos:station:WAVCIS:CSI09:1,2009-03-03T10:00:00Z,29.1015,-89.9782,1023.98,11111222 
WAVCIS,ioos:station:WAVCIS:CSI09:1,2009-03-03T11:00:00Z,29.1015,-89.9782,1024.88,11111222 
WAVCIS,ioos:station:WAVCIS:CSI09:1,2009-03-03T12:00:00Z,29.1015,-89.9782,1025.46,11111222 
WAVCIS,ioos:station:WAVCIS:CSI09:1,2009-03-03T13:00:00Z,29.1015,-89.9782,1025.83,11111222 
WAVCIS,ioos:station:WAVCIS:CSI09:1,2009-03-03T14:00:00Z,29.1015,-89.9782,1026.31,11111222 
WAVCIS,ioos:station:WAVCIS:CSI09:1,2009-03-03T15:00:00Z,29.1015,-89.9782,1026.61,11111222 
WAVCIS,ioos:station:WAVCIS:CSI09:1,2009-03-03T16:00:00Z,29.1015,-89.9782,1027.25,11111222 
WAVCIS,ioos:station:WAVCIS:CSI09:1,2009-03-03T17:00:00Z,29.1015,-89.9782,1026.88,11111222 
WAVCIS,ioos:station:WAVCIS:CSI09:1,2009-03-03T18:00:00Z,29.1015,-89.9782,1026.61,11111222 
WAVCIS,ioos:station:WAVCIS:CSI09:1,2009-03-03T19:00:00Z,29.1015,-89.9782,1025.78,11111222 
WAVCIS,ioos:station:WAVCIS:CSI09:1,2009-03-03T20:00:00Z,29.1015,-89.9782,1025.5,11111222 
WAVCIS,ioos:station:WAVCIS:CSI09:1,2009-03-03T21:00:00Z,29.1015,-89.9782,1025.47,11111222 
WAVCIS,ioos:station:WAVCIS:CSI09:1,2009-03-03T22:00:00Z,29.1015,-89.9782,1025.5,11111222 
WAVCIS,ioos:station:WAVCIS:CSI09:1,2009-03-03T23:00:00Z,29.1015,-89.9782,1025.57,11111222 
WAVCIS,ioos:station:WAVCIS:CSI09:1,2009-03-04T00:00:00Z,29.1015,-89.9782,1025.61,11111222 
WAVCIS,ioos:station:WAVCIS:CSI09:1,2009-03-04T01:00:00Z,29.1015,-89.9782,1025.58,11111222 
WAVCIS,ioos:station:WAVCIS:CSI09:1,2009-03-04T02:00:00Z,29.1015,-89.9782,1025.58,11111222 
WAVCIS,ioos:station:WAVCIS:CSI09:1,2009-03-04T03:00:00Z,29.1015,-89.9782,1025.87,11111222 
WAVCIS,ioos:station:WAVCIS:CSI09:1,2009-03-04T04:00:00Z,29.1015,-89.9782,1025.41,11111222 
WAVCIS,ioos:station:WAVCIS:CSI09:1,2009-03-04T05:00:00Z,29.1015,-89.9782,1025.25,11111222 
WAVCIS,ioos:station:WAVCIS:CSI09:1,2009-03-04T06:00:00Z,29.1015,-89.9782,1024.77,11111222 
WAVCIS,ioos:station:WAVCIS:CSI09:1,2009-03-04T07:00:00Z,29.1015,-89.9782,1024.54,11111222 
WAVCIS,ioos:station:WAVCIS:CSI09:1,2009-03-04T08:00:00Z,29.1015,-89.9782,1024.11,11111222 
WAVCIS,ioos:station:WAVCIS:CSI09:1,2009-03-04T09:00:00Z,29.1015,-89.9782,1023.86,11111222 
WAVCIS,ioos:station:WAVCIS:CSI09:1,2009-03-04T10:00:00Z,29.1015,-89.9782,1023.67,11111222 
WAVCIS,ioos:station:WAVCIS:CSI09:1,2009-03-04T11:00:00Z,29.1015,-89.9782,1023.92,11111222 
WAVCIS,ioos:station:WAVCIS:CSI09:1,2009-03-04T12:00:00Z,29.1015,-89.9782,1024.23,11111222 
WAVCIS,ioos:station:WAVCIS:CSI09:1,2009-03-04T13:00:00Z,29.1015,-89.9782,1024.61,11111222 
WAVCIS,ioos:station:WAVCIS:CSI09:1,2009-03-04T14:00:00Z,29.1015,-89.9782,1025.24,11111222 
WAVCIS,ioos:station:WAVCIS:CSI09:1,2009-03-04T15:00:00Z,29.1015,-89.9782,1025.84,11111222 
WAVCIS,ioos:station:WAVCIS:CSI09:1,2009-03-04T16:00:00Z,29.1015,-89.9782,1026.07,11111222 
WAVCIS,ioos:station:WAVCIS:CSI09:1,2009-03-04T17:00:00Z,29.1015,-89.9782,1026.18,11111222 
WAVCIS,ioos:station:WAVCIS:CSI09:1,2009-03-04T18:00:00Z,29.1015,-89.9782,1025.67,11111222 
WAVCIS,ioos:station:WAVCIS:CSI09:1,2009-03-04T19:00:00Z,29.1015,-89.9782,1025.13,11111222 
WAVCIS,ioos:station:WAVCIS:CSI09:1,2009-03-04T20:00:00Z,29.1015,-89.9782,1024.3,11111222 
WAVCIS,ioos:station:WAVCIS:CSI09:1,2009-03-04T21:00:00Z,29.1015,-89.9782,1023.99,11111222 
WAVCIS,ioos:station:WAVCIS:CSI09:1,2009-03-04T22:00:00Z,29.1015,-89.9782,1023.84,11111222 
WAVCIS,ioos:station:WAVCIS:CSI09:1,2009-03-04T23:00:00Z,29.1015,-89.9782,1023.75,11111222 
WAVCIS,ioos:station:WAVCIS:CSI09:1,2009-03-05T00:00:00Z,29.1015,-89.9782,1023.83,11111222 
WAVCIS,ioos:station:WAVCIS:CSI09:1,2009-03-05T01:00:00Z,29.1015,-89.9782,1024.16,11111222 
WAVCIS,ioos:station:WAVCIS:CSI09:1,2009-03-05T02:00:00Z,29.1015,-89.9782,1024.52,11111222 
WAVCIS,ioos:station:WAVCIS:CSI09:1,2009-03-05T03:00:00Z,29.1015,-89.9782,1024.8,11111222 
WAVCIS,ioos:station:WAVCIS:CSI09:1,2009-03-05T04:00:00Z,29.1015,-89.9782,1024.87,11111222 
WAVCIS,ioos:station:WAVCIS:CSI09:1,2009-03-05T05:00:00Z,29.1015,-89.9782,1024.5,11111222 
WAVCIS,ioos:station:WAVCIS:CSI09:1,2009-03-05T06:00:00Z,29.1015,-89.9782,1024.29,11111222 
WAVCIS,ioos:station:WAVCIS:CSI09:1,2009-03-05T07:00:00Z,29.1015,-89.9782,1024.03,11111222 
WAVCIS,ioos:station:WAVCIS:CSI09:1,2009-03-05T08:00:00Z,29.1015,-89.9782,1023.68,11111222 
WAVCIS,ioos:station:WAVCIS:CSI09:1,2009-03-05T09:00:00Z,29.1015,-89.9782,1023.58,11111222 
WAVCIS,ioos:station:WAVCIS:CSI09:1,2009-03-05T10:00:00Z,29.1015,-89.9782,1023.59,11111222 
WAVCIS,ioos:station:WAVCIS:CSI09:1,2009-03-05T11:00:00Z,29.1015,-89.9782,1024.08,11111222 
WAVCIS,ioos:station:WAVCIS:CSI09:1,2009-03-05T12:00:00Z,29.1015,-89.9782,1024.52,11111222 
WAVCIS,ioos:station:WAVCIS:CSI09:1,2009-03-05T13:00:00Z,29.1015,-89.9782,1024.99,11111222 
WAVCIS,ioos:station:WAVCIS:CSI09:1,2009-03-05T14:00:00Z,29.1015,-89.9782,1025.71,11111222 
WAVCIS,ioos:station:WAVCIS:CSI09:1,2009-03-05T15:00:00Z,29.1015,-89.9782,1026.14,11111222 
WAVCIS,ioos:station:WAVCIS:CSI09:1,2009-03-05T16:00:00Z,29.1015,-89.9782,1026.3,11111222 
WAVCIS,ioos:station:WAVCIS:CSI09:1,2009-03-05T17:00:00Z,29.1015,-89.9782,1026.49,11111222 
WAVCIS,ioos:station:WAVCIS:CSI09:1,2009-03-05T18:00:00Z,29.1015,-89.9782,1026.1,11111222 
WAVCIS,ioos:station:WAVCIS:CSI09:1,2009-03-05T19:00:00Z,29.1015,-89.9782,1025.53,11111222 
WAVCIS,ioos:station:WAVCIS:CSI09:1,2009-03-05T20:00:00Z,29.1015,-89.9782,1024.85,11111222 
WAVCIS,ioos:station:WAVCIS:CSI09:1,2009-03-05T21:00:00Z,29.1015,-89.9782,1024.53,11111222 
WAVCIS,ioos:station:WAVCIS:CSI09:1,2009-03-05T22:00:00Z,29.1015,-89.9782,1024.35,11111222 
WAVCIS,ioos:station:WAVCIS:CSI09:1,2009-03-05T23:00:00Z,29.1015,-89.9782,1024.0,11111222 
WAVCIS,ioos:station:WAVCIS:CSI09:1,2009-03-06T00:00:00Z,29.1015,-89.9782,1024.25,11111222 
WAVCIS,ioos:station:WAVCIS:CSI09:1,2009-03-06T01:00:00Z,29.1015,-89.9782,1024.41,11111222 
WAVCIS,ioos:station:WAVCIS:CSI09:1,2009-03-06T02:00:00Z,29.1015,-89.9782,1024.61,11111222 
WAVCIS,ioos:station:WAVCIS:CSI09:1,2009-03-06T03:00:00Z,29.1015,-89.9782,1025.02,11111222 
WAVCIS,ioos:station:WAVCIS:CSI09:1,2009-03-06T04:00:00Z,29.1015,-89.9782,1025.23,11111222 
WAVCIS,ioos:station:WAVCIS:CSI09:1,2009-03-06T05:00:00Z,29.1015,-89.9782,1025.27,11111222 
WAVCIS,ioos:station:WAVCIS:CSI09:1,2009-03-06T06:00:00Z,29.1015,-89.9782,1025.03,11111222 
WAVCIS,ioos:station:WAVCIS:CSI09:1,2009-03-06T07:00:00Z,29.1015,-89.9782,1024.75,11111222 
WAVCIS,ioos:station:WAVCIS:CSI09:1,2009-03-06T08:00:00Z,29.1015,-89.9782,1024.53,11111222 
WAVCIS,ioos:station:WAVCIS:CSI09:1,2009-03-06T09:00:00Z,29.1015,-89.9782,1023.99,11111222 
WAVCIS,ioos:station:WAVCIS:CSI09:1,2009-03-06T10:00:00Z,29.1015,-89.9782,1023.76,11111222 
WAVCIS,ioos:station:WAVCIS:CSI09:1,2009-03-06T11:00:00Z,29.1015,-89.9782,1024.02,11111222 
WAVCIS,ioos:station:WAVCIS:CSI09:1,2009-03-06T12:00:00Z,29.1015,-89.9782,1024.14,11111222 
WAVCIS,ioos:station:WAVCIS:CSI09:1,2009-03-06T13:00:00Z,29.1015,-89.9782,1024.5,11111222 
WAVCIS,ioos:station:WAVCIS:CSI09:1,2009-03-06T14:00:00Z,29.1015,-89.9782,1024.96,11111222 
WAVCIS,ioos:station:WAVCIS:CSI09:1,2009-03-06T15:00:00Z,29.1015,-89.9782,1025.28,11111222 
WAVCIS,ioos:station:WAVCIS:CSI09:1,2009-03-06T16:00:00Z,29.1015,-89.9782,1025.42,11111222 
WAVCIS,ioos:station:WAVCIS:CSI09:1,2009-03-06T17:00:00Z,29.1015,-89.9782,1025.56,11111222 
WAVCIS,ioos:station:WAVCIS:CSI09:1,2009-03-06T18:00:00Z,29.1015,-89.9782,1025.31,11111222 
WAVCIS,ioos:station:WAVCIS:CSI09:1,2009-03-06T19:00:00Z,29.1015,-89.9782,1024.6,11111222 
WAVCIS,ioos:station:WAVCIS:CSI09:1,2009-03-06T20:00:00Z,29.1015,-89.9782,1024.07,11111222 
WAVCIS,ioos:station:WAVCIS:CSI09:1,2009-03-06T21:00:00Z,29.1015,-89.9782,1023.65,11111222 
WAVCIS,ioos:station:WAVCIS:CSI09:1,2009-03-06T22:00:00Z,29.1015,-89.9782,1023.26,11111222 
WAVCIS,ioos:station:WAVCIS:CSI09:1,2009-03-06T23:00:00Z,29.1015,-89.9782,1023.13,11111222 
WAVCIS,ioos:station:WAVCIS:CSI09:1,2009-03-07T00:00:00Z,29.1015,-89.9782,1023.09,11111222 
WAVCIS,ioos:station:WAVCIS:CSI09:1,2009-03-07T01:00:00Z,29.1015,-89.9782,1023.11,11111222 
WAVCIS,ioos:station:WAVCIS:CSI09:1,2009-03-07T02:00:00Z,29.1015,-89.9782,1023.18,11111222 
WAVCIS,ioos:station:WAVCIS:CSI09:1,2009-03-07T03:00:00Z,29.1015,-89.9782,1023.28,11111222 
WAVCIS,ioos:station:WAVCIS:CSI09:1,2009-03-07T04:00:00Z,29.1015,-89.9782,1023.53,11111222 
WAVCIS,ioos:station:WAVCIS:CSI09:1,2009-03-07T05:00:00Z,29.1015,-89.9782,1023.26,11111222 
WAVCIS,ioos:station:WAVCIS:CSI09:1,2009-03-07T06:00:00Z,29.1015,-89.9782,1022.74,11111222 
WAVCIS,ioos:station:WAVCIS:CSI09:1,2009-03-07T07:00:00Z,29.1015,-89.9782,1022.55,11111222 
WAVCIS,ioos:station:WAVCIS:CSI09:1,2009-03-07T08:00:00Z,29.1015,-89.9782,1021.98,11111222 
WAVCIS,ioos:station:WAVCIS:CSI09:1,2009-03-07T09:00:00Z,29.1015,-89.9782,1021.91,11111222 
WAVCIS,ioos:station:WAVCIS:CSI09:1,2009-03-07T10:00:00Z,29.1015,-89.9782,1021.67,11111222 
WAVCIS,ioos:station:WAVCIS:CSI09:1,2009-03-07T11:00:00Z,29.1015,-89.9782,1021.63,11111222 
WAVCIS,ioos:station:WAVCIS:CSI09:1,2009-03-07T12:00:00Z,29.1015,-89.9782,1021.88,11111222 
WAVCIS,ioos:station:WAVCIS:CSI09:1,2009-03-07T13:00:00Z,29.1015,-89.9782,1021.96,11111222 
WAVCIS,ioos:station:WAVCIS:CSI09:1,2009-03-07T14:00:00Z,29.1015,-89.9782,1022.21,11111222 
WAVCIS,ioos:station:WAVCIS:CSI09:1,2009-03-07T15:00:00Z,29.1015,-89.9782,1022.35,11111222 
WAVCIS,ioos:station:WAVCIS:CSI09:1,2009-03-07T16:00:00Z,29.1015,-89.9782,1023.25,11111222 
WAVCIS,ioos:station:WAVCIS:CSI09:1,2009-03-07T17:00:00Z,29.1015,-89.9782,1023.05,11111222 
WAVCIS,ioos:station:WAVCIS:CSI09:1,2009-03-07T18:00:00Z,29.1015,-89.9782,1022.36,11111222 
WAVCIS,ioos:station:WAVCIS:CSI09:1,2009-03-07T19:00:00Z,29.1015,-89.9782,1021.36,11111222 
WAVCIS,ioos:station:WAVCIS:CSI09:1,2009-03-07T20:00:00Z,29.1015,-89.9782,1020.61,11111222 
WAVCIS,ioos:station:WAVCIS:CSI09:1,2009-03-07T21:00:00Z,29.1015,-89.9782,1020.41,11111222 
WAVCIS,ioos:station:WAVCIS:CSI09:1,2009-03-07T22:00:00Z,29.1015,-89.9782,1020.12,11111222 
WAVCIS,ioos:station:WAVCIS:CSI09:1,2009-03-07T23:00:00Z,29.1015,-89.9782,1019.69,11111222 
WAVCIS,ioos:station:WAVCIS:CSI09:1,2009-03-08T00:00:00Z,29.1015,-89.9782,1019.77,11111222 
WAVCIS,ioos:station:WAVCIS:CSI09:1,2009-03-08T01:00:00Z,29.1015,-89.9782,1019.86,11111222 
WAVCIS,ioos:station:WAVCIS:CSI09:1,2009-03-08T02:00:00Z,29.1015,-89.9782,1019.99,11111222 
WAVCIS,ioos:station:WAVCIS:CSI09:1,2009-03-08T03:00:00Z,29.1015,-89.9782,1020.01,11111222 
WAVCIS,ioos:station:WAVCIS:CSI09:1,2009-03-08T04:00:00Z,29.1015,-89.9782,1020.09,11111222 
WAVCIS,ioos:station:WAVCIS:CSI09:1,2009-03-08T05:00:00Z,29.1015,-89.9782,1019.86,11111222 
WAVCIS,ioos:station:WAVCIS:CSI09:1,2009-03-08T06:00:00Z,29.1015,-89.9782,1019.29,11111222 
WAVCIS,ioos:station:WAVCIS:CSI09:1,2009-03-08T07:00:00Z,29.1015,-89.9782,1018.46,11111222 
WAVCIS,ioos:station:WAVCIS:CSI09:1,2009-03-08T08:00:00Z,29.1015,-89.9782,1017.71,11111222 
WAVCIS,ioos:station:WAVCIS:CSI09:1,2009-03-08T09:00:00Z,29.1015,-89.9782,1017.27,11111222 
WAVCIS,ioos:station:WAVCIS:CSI09:1,2009-03-08T10:00:00Z,29.1015,-89.9782,1017.42,11111222 
WAVCIS,ioos:station:WAVCIS:CSI09:1,2009-03-08T11:00:00Z,29.1015,-89.9782,1017.34,11111222 
WAVCIS,ioos:station:WAVCIS:CSI09:1,2009-03-08T12:00:00Z,29.1015,-89.9782,1017.6,11111222 
WAVCIS,ioos:station:WAVCIS:CSI09:1,2009-03-08T13:00:00Z,29.1015,-89.9782,1018.59,11111222 
WAVCIS,ioos:station:WAVCIS:CSI09:1,2009-03-08T14:00:00Z,29.1015,-89.9782,1019.46,11111222 
WAVCIS,ioos:station:WAVCIS:CSI09:1,2009-03-08T15:00:00Z,29.1015,-89.9782,1020.2,11111222 
WAVCIS,ioos:station:WAVCIS:CSI09:1,2009-03-08T16:00:00Z,29.1015,-89.9782,1020.77,11111222 
WAVCIS,ioos:station:WAVCIS:CSI09:1,2009-03-08T17:00:00Z,29.1015,-89.9782,1021.12,11111222 
WAVCIS,ioos:station:WAVCIS:CSI09:1,2009-03-08T18:00:00Z,29.1015,-89.9782,1021.0,11111222 
WAVCIS,ioos:station:WAVCIS:CSI09:1,2009-03-08T19:00:00Z,29.1015,-89.9782,1020.45,11111222 
WAVCIS,ioos:station:WAVCIS:CSI09:1,2009-03-08T20:00:00Z,29.1015,-89.9782,1019.92,11111222 
WAVCIS,ioos:station:WAVCIS:CSI09:1,2009-03-08T21:00:00Z,29.1015,-89.9782,1018.94,11111222 
WAVCIS,ioos:station:WAVCIS:CSI09:1,2009-03-08T22:00:00Z,29.1015,-89.9782,1018.76,11111222 
WAVCIS,ioos:station:WAVCIS:CSI09:1,2009-03-08T23:00:00Z,29.1015,-89.9782,1018.88,11111222 
WAVCIS,ioos:station:WAVCIS:CSI09:1,2009-03-09T00:00:00Z,29.1015,-89.9782,1019.02,11111222 
WAVCIS,ioos:station:WAVCIS:CSI09:1,2009-03-09T01:00:00Z,29.1015,-89.9782,1018.67,11111222 
WAVCIS,ioos:station:WAVCIS:CSI09:1,2009-03-09T02:00:00Z,29.1015,-89.9782,1018.84,11111222 
WAVCIS,ioos:station:WAVCIS:CSI09:1,2009-03-09T03:00:00Z,29.1015,-89.9782,1019.49,11111222 
WAVCIS,ioos:station:WAVCIS:CSI09:1,2009-03-09T04:00:00Z,29.1015,-89.9782,1019.66,11111222 
WAVCIS,ioos:station:WAVCIS:CSI09:1,2009-03-09T05:00:00Z,29.1015,-89.9782,1019.66,11111222 
WAVCIS,ioos:station:WAVCIS:CSI09:1,2009-03-09T06:00:00Z,29.1015,-89.9782,1019.74,11111222 
WAVCIS,ioos:station:WAVCIS:CSI09:1,2009-03-09T07:00:00Z,29.1015,-89.9782,1019.34,11111222 
WAVCIS,ioos:station:WAVCIS:CSI09:1,2009-03-09T08:00:00Z,29.1015,-89.9782,1019.08,11111222 
WAVCIS,ioos:station:WAVCIS:CSI09:1,2009-03-09T09:00:00Z,29.1015,-89.9782,1018.69,11111222 
WAVCIS,ioos:station:WAVCIS:CSI09:1,2009-03-09T10:00:00Z,29.1015,-89.9782,1018.81,11111222 
WAVCIS,ioos:station:WAVCIS:CSI09:1,2009-03-09T11:00:00Z,29.1015,-89.9782,1018.99,11111222 
WAVCIS,ioos:station:WAVCIS:CSI09:1,2009-03-09T12:00:00Z,29.1015,-89.9782,1019.2,11111222 
WAVCIS,ioos:station:WAVCIS:CSI09:1,2009-03-09T13:00:00Z,29.1015,-89.9782,1019.7,11111222 
WAVCIS,ioos:station:WAVCIS:CSI09:1,2009-03-09T14:00:00Z,29.1015,-89.9782,1020.53,11111222 
WAVCIS,ioos:station:WAVCIS:CSI09:1,2009-03-09T15:00:00Z,29.1015,-89.9782,1020.98,11111222 
WAVCIS,ioos:station:WAVCIS:CSI09:1,2009-03-09T16:00:00Z,29.1015,-89.9782,1021.6,11111222 
WAVCIS,ioos:station:WAVCIS:CSI09:1,2009-03-09T17:00:00Z,29.1015,-89.9782,1021.8,11111222 
WAVCIS,ioos:station:WAVCIS:CSI09:1,2009-03-09T18:00:00Z,29.1015,-89.9782,1021.57,11111222 
WAVCIS,ioos:station:WAVCIS:CSI09:1,2009-03-09T19:00:00Z,29.1015,-89.9782,1020.99,11111222 
WAVCIS,ioos:station:WAVCIS:CSI09:1,2009-03-09T20:00:00Z,29.1015,-89.9782,1020.37,11111222 
WAVCIS,ioos:station:WAVCIS:CSI09:1,2009-03-09T21:00:00Z,29.1015,-89.9782,1019.94,11111222 
WAVCIS,ioos:station:WAVCIS:CSI09:1,2009-03-09T22:00:00Z,29.1015,-89.9782,1019.64,11111222 
WAVCIS,ioos:station:WAVCIS:CSI09:1,2009-03-09T23:00:00Z,29.1015,-89.9782,1019.65,11111222 
WAVCIS,ioos:station:WAVCIS:CSI09:1,2009-03-10T00:00:00Z,29.1015,-89.9782,1019.67,11111222 
WAVCIS,ioos:station:WAVCIS:CSI09:1,2009-03-10T01:00:00Z,29.1015,-89.9782,1019.91,11111222 
WAVCIS,ioos:station:WAVCIS:CSI09:1,2009-03-10T02:00:00Z,29.1015,-89.9782,1019.84,11111222 
WAVCIS,ioos:station:WAVCIS:CSI09:1,2009-03-10T03:00:00Z,29.1015,-89.9782,1019.69,11111222 
WAVCIS,ioos:station:WAVCIS:CSI09:1,2009-03-10T04:00:00Z,29.1015,-89.9782,1019.51,11111222 
WAVCIS,ioos:station:WAVCIS:CSI09:1,2009-03-10T05:00:00Z,29.1015,-89.9782,1019.29,11111222 
WAVCIS,ioos:station:WAVCIS:CSI09:1,2009-03-10T06:00:00Z,29.1015,-89.9782,1019.04,11111222 
WAVCIS,ioos:station:WAVCIS:CSI09:1,2009-03-10T07:00:00Z,29.1015,-89.9782,1018.76,11111222 
WAVCIS,ioos:station:WAVCIS:CSI09:1,2009-03-10T08:00:00Z,29.1015,-89.9782,1018.13,11111222 
WAVCIS,ioos:station:WAVCIS:CSI09:1,2009-03-10T09:00:00Z,29.1015,-89.9782,1017.71,11111222 
WAVCIS,ioos:station:WAVCIS:CSI09:1,2009-03-10T10:00:00Z,29.1015,-89.9782,1017.56,11111222 
WAVCIS,ioos:station:WAVCIS:CSI09:1,2009-03-10T11:00:00Z,29.1015,-89.9782,1017.6,11111222 
WAVCIS,ioos:station:WAVCIS:CSI09:1,2009-03-10T12:00:00Z,29.1015,-89.9782,1017.43,11111222 
WAVCIS,ioos:station:WAVCIS:CSI09:1,2009-03-10T13:00:00Z,29.1015,-89.9782,1017.82,11111222 
WAVCIS,ioos:station:WAVCIS:CSI09:1,2009-03-10T14:00:00Z,29.1015,-89.9782,1018.4,11111222 
WAVCIS,ioos:station:WAVCIS:CSI09:1,2009-03-10T15:00:00Z,29.1015,-89.9782,1019.03,11111222 
WAVCIS,ioos:station:WAVCIS:CSI09:1,2009-03-10T16:00:00Z,29.1015,-89.9782,1019.57,11111222 
WAVCIS,ioos:station:WAVCIS:CSI09:1,2009-03-10T17:00:00Z,29.1015,-89.9782,1020.02,11111222 
WAVCIS,ioos:station:WAVCIS:CSI09:1,2009-03-10T18:00:00Z,29.1015,-89.9782,1019.92,11111222 
WAVCIS,ioos:station:WAVCIS:CSI09:1,2009-03-10T19:00:00Z,29.1015,-89.9782,1019.38,11111222 
WAVCIS,ioos:station:WAVCIS:CSI09:1,2009-03-10T20:00:00Z,29.1015,-89.9782,1018.87,11111222 
WAVCIS,ioos:station:WAVCIS:CSI09:1,2009-03-10T21:00:00Z,29.1015,-89.9782,1018.4,11111222 
WAVCIS,ioos:station:WAVCIS:CSI09:1,2009-03-10T22:00:00Z,29.1015,-89.9782,1018.19,11111222 
WAVCIS,ioos:station:WAVCIS:CSI09:1,2009-03-10T23:00:00Z,29.1015,-89.9782,1018.26,11111222 
WAVCIS,ioos:station:WAVCIS:CSI09:1,2009-03-11T00:00:00Z,29.1015,-89.9782,1018.64,11111222 
WAVCIS,ioos:station:WAVCIS:CSI09:1,2009-03-11T01:00:00Z,29.1015,-89.9782,1018.9,11111222 
WAVCIS,ioos:station:WAVCIS:CSI09:1,2009-03-11T02:00:00Z,29.1015,-89.9782,1019.2,11111222 
WAVCIS,ioos:station:WAVCIS:CSI09:1,2009-03-11T03:00:00Z,29.1015,-89.9782,1019.4,11111222 
WAVCIS,ioos:station:WAVCIS:CSI09:1,2009-03-11T04:00:00Z,29.1015,-89.9782,1019.44,11111222 
WAVCIS,ioos:station:WAVCIS:CSI09:1,2009-03-11T05:00:00Z,29.1015,-89.9782,1019.23,11111222 
WAVCIS,ioos:station:WAVCIS:CSI09:1,2009-03-11T06:00:00Z,29.1015,-89.9782,1019.1,11111222 
WAVCIS,ioos:station:WAVCIS:CSI09:1,2009-03-11T07:00:00Z,29.1015,-89.9782,1019.37,11111222 
WAVCIS,ioos:station:WAVCIS:CSI09:1,2009-03-11T08:00:00Z,29.1015,-89.9782,1019.04,11111222 
WAVCIS,ioos:station:WAVCIS:CSI09:1,2009-03-11T09:00:00Z,29.1015,-89.9782,1018.33,11111222 
WAVCIS,ioos:station:WAVCIS:CSI09:1,2009-03-11T10:00:00Z,29.1015,-89.9782,1018.36,11111222 
WAVCIS,ioos:station:WAVCIS:CSI09:1,2009-03-11T11:00:00Z,29.1015,-89.9782,1018.88,11111222 
WAVCIS,ioos:station:WAVCIS:CSI09:1,2009-03-11T12:00:00Z,29.1015,-89.9782,1019.23,11111222 
WAVCIS,ioos:station:WAVCIS:CSI09:1,2009-03-11T13:00:00Z,29.1015,-89.9782,1019.41,11111222 
WAVCIS,ioos:station:WAVCIS:CSI09:1,2009-03-11T14:00:00Z,29.1015,-89.9782,1020.28,11111222 
WAVCIS,ioos:station:WAVCIS:CSI09:1,2009-03-11T15:00:00Z,29.1015,-89.9782,1021.36,11111222 
WAVCIS,ioos:station:WAVCIS:CSI09:1,2009-03-11T16:00:00Z,29.1015,-89.9782,1022.02,11111222 
WAVCIS,ioos:station:WAVCIS:CSI09:1,2009-03-11T17:00:00Z,29.1015,-89.9782,1022.18,11111222 
WAVCIS,ioos:station:WAVCIS:CSI09:1,2009-03-11T18:00:00Z,29.1015,-89.9782,1022.09,11111222 
WAVCIS,ioos:station:WAVCIS:CSI09:1,2009-03-11T19:00:00Z,29.1015,-89.9782,1021.46,11111222 
WAVCIS,ioos:station:WAVCIS:CSI09:1,2009-03-11T20:00:00Z,29.1015,-89.9782,1020.29,11111222 
WAVCIS,ioos:station:WAVCIS:CSI09:1,2009-03-11T21:00:00Z,29.1015,-89.9782,1019.74,11111222 
WAVCIS,ioos:station:WAVCIS:CSI09:1,2009-03-11T22:00:00Z,29.1015,-89.9782,1019.67,11111222 